Location: *
(34.6903°N, 135.5184°E)
Time: 13:20:33
(UTC+00:00)

COSMOS 2441 - Pass Details

Date: 22 September 2019
Orbit: 709 x 730 km, 98.0° (Epoch: 14 October)

Event Time Altitude Azimuth Distance (km) Brightness Sun altitude
Rises 19:10:07 0° 11° (N) 3,146 8.0 -20.3°
Reaches altitude 10° 19:12:24 10° 11° (N) 2,224 7.2 -19.9°
Maximum altitude 19:17:17 85° 284° (WNW) 736 4.3 -18.9°
Drops below altitude 10° 19:22:10 10° 196° (SSW) 2,218 6.6 -17.9°
Enters shadow 19:22:39 - 195° (SSW) 2,408 6.8 -17.8°
